Cook, MN

1:22 AM CDT on April 27, 2017 (GMT -0500)
Cook Municipal

Weather History for KCQM - September, 2013

Change the Weather History Date:

Thursday, September 26, 2013

  Actual Average Record
Temperature  
Mean Temperature 60 °F -  
Max Temperature 73 °F 58 °F 78 °F (2014)
Min Temperature 48 °F 36 °F 28 °F (2001)
Degree Days  
Heating Degree Days 4    
Growing Degree Days 10 (Base 50)    
Moisture  
Dew Point 52 °F    
Average Humidity 78    
Maximum Humidity 100    
Minimum Humidity 53    
Precipitation  
Precipitation 0.00 in - - ()
Sea Level Pressure  
Sea Level Pressure 29.93 in    
Wind  
Wind Speed 5 mph (SE)    
Max Wind Speed 20 mph    
Max Gust Speed 25 mph    
Visibility 9 miles    
Events      
Averages and records for this station are not official NWS values.
T = Trace of Precipitation, MM = Missing Value Source: NWS Daily Summary

Daily Weather History Graph

Daily Weather History Graph

Search for Another Location

Airport or City:

Trip Planner

Search our weather history database for the weather conditions in past years. The results will help you decide how hot, cold, wet, or windy it might be!

Date:

Astronomy

Sep. 26, 2013 Rise Set
Actual Time 7:03 AM CDT 6:59 PM CDT
Civil Twilight 6:32 AM CDT 7:30 PM CDT
Nautical Twilight 5:56 AM CDT 8:06 PM CDT
Astronomical Twilight 5:19 AM CDT 8:43 PM CDT
Moon 11:36 PM CDT (9/26) 2:18 PM CDT (9/26)
Length of Visible Light 12h 57m
Length of Day
11h 56m
Waning Gibbous, 54% of the Moon is Illuminated
Sep 26
Waning Gibbous
Sep 26
Last Quarter
Oct 4
New
Oct 11
First Quarter
Oct 18
Full

Hourly Weather History & Observations

Time (CDT) Temp. Dew Point Humidity Pressure Visibility Wind Dir Wind Speed Gust Speed Precip Events Conditions
12:17 AM 48.2 °F 48.2 °F 100% 29.97 in 10.0 mi Calm Calm - N/A   Clear
12:36 AM 50.0 °F 48.2 °F 94% 29.97 in 10.0 mi Calm Calm - N/A   Clear
12:57 AM 50.0 °F 48.2 °F 94% 29.97 in 10.0 mi Calm Calm - N/A   Clear
1:17 AM 48.2 °F 48.2 °F 100% 29.97 in 10.0 mi Calm Calm - N/A   Clear
1:36 AM 48.2 °F 48.2 °F 100% 29.97 in 10.0 mi Calm Calm - N/A   Clear
1:57 AM 48.2 °F 48.2 °F 100% 29.98 in 7.0 mi Calm Calm - N/A   Clear
2:17 AM 48.2 °F 46.4 °F 93% 29.98 in 5.0 mi Calm Calm - N/A   Clear
2:36 AM 48.2 °F 46.4 °F 93% 29.97 in 5.0 mi Calm Calm - N/A   Clear
2:57 AM 48.2 °F 48.2 °F 100% 29.97 in 5.0 mi Calm Calm - N/A   Mostly Cloudy
3:17 AM 50.0 °F 48.2 °F 94% 29.97 in 5.0 mi ESE 3.5 mph - N/A   Overcast
3:36 AM 50.0 °F 50.0 °F 100% 29.97 in 5.0 mi East 3.5 mph - N/A   Overcast
3:57 AM 51.8 °F 50.0 °F 94% 29.96 in 7.0 mi ESE 3.5 mph - N/A   Overcast
4:17 AM 50.0 °F 48.2 °F 94% 29.96 in 7.0 mi ESE 3.5 mph - N/A   Overcast
4:36 AM 50.0 °F 48.2 °F 94% 29.96 in 7.0 mi Calm Calm - N/A   Mostly Cloudy
4:57 AM 50.0 °F 48.2 °F 94% 29.96 in 5.0 mi East 4.6 mph - N/A   Scattered Clouds
5:16 AM 50.0 °F 48.2 °F 94% 29.96 in 5.0 mi ESE 3.5 mph - N/A   Clear
5:37 AM 50.0 °F 48.2 °F 94% 29.96 in 5.0 mi East 3.5 mph - N/A   Clear
5:56 AM 50.0 °F 48.2 °F 94% 29.96 in 7.0 mi Calm Calm - N/A   Scattered Clouds
6:16 AM 50.0 °F 48.2 °F 94% 29.97 in 7.0 mi ESE 3.5 mph - N/A   Scattered Clouds
6:37 AM 50.0 °F 48.2 °F 94% 29.97 in 7.0 mi ESE 3.5 mph - N/A   Clear
6:57 AM 50.0 °F 48.2 °F 94% 29.96 in 5.0 mi ESE 3.5 mph - N/A   Clear
7:16 AM 51.8 °F 50.0 °F 94% 29.96 in 4.0 mi ESE 3.5 mph - N/A   Clear
7:37 AM 51.8 °F 50.0 °F 94% 29.96 in 4.0 mi ESE 4.6 mph - N/A   Clear
7:57 AM 51.8 °F 50.0 °F 94% 29.96 in 5.0 mi ESE 3.5 mph - N/A   Clear
8:16 AM 51.8 °F 51.8 °F 100% 29.96 in 7.0 mi ESE 5.8 mph - N/A   Scattered Clouds
8:37 AM 53.6 °F 51.8 °F 94% 29.96 in 7.0 mi ESE 5.8 mph - N/A   Clear
8:56 AM 53.6 °F 51.8 °F 94% 29.97 in 10.0 mi ESE 4.6 mph - N/A   Clear
9:16 AM 55.4 °F 51.8 °F 88% 29.96 in 10.0 mi ESE 6.9 mph - N/A   Clear
9:37 AM 57.2 °F 51.8 °F 82% 29.96 in 10.0 mi SE 6.9 mph - N/A   Clear
9:56 AM 57.2 °F 51.8 °F 82% 29.96 in 10.0 mi SE 8.1 mph - N/A   Clear
10:16 AM 60.8 °F 51.8 °F 72% 29.95 in 10.0 mi SE 10.4 mph - N/A   Clear
10:37 AM 62.6 °F 51.8 °F 68% 29.95 in 10.0 mi SSE 10.4 mph 18.4 mph N/A   Clear
10:56 AM 62.6 °F 51.8 °F 68% 29.94 in 10.0 mi SE 9.2 mph 18.4 mph N/A   Clear
11:16 AM 64.4 °F 53.6 °F 68% 29.94 in 10.0 mi SSE 11.5 mph 18.4 mph N/A   Clear
11:37 AM 66.2 °F 51.8 °F 60% 29.93 in 10.0 mi SSE 13.8 mph - N/A   Clear
11:56 AM 68.0 °F 53.6 °F 60% 29.93 in 10.0 mi SSE 10.4 mph 16.1 mph N/A   Clear
12:16 PM 69.8 °F 53.6 °F 56% 29.93 in 10.0 mi SE 11.5 mph 19.6 mph N/A   Clear
12:37 PM 69.8 °F 53.6 °F 56% 29.92 in 10.0 mi SSE 12.7 mph 23.0 mph N/A   Clear
12:56 PM 69.8 °F 53.6 °F 56% 29.91 in 10.0 mi SE 10.4 mph 17.3 mph N/A   Clear
1:16 PM 69.8 °F 53.6 °F 56% 29.91 in 10.0 mi SE 11.5 mph 20.7 mph N/A   Clear
1:36 PM 71.6 °F 55.4 °F 57% 29.90 in 10.0 mi SSE 10.4 mph 19.6 mph N/A   Clear
1:56 PM 71.6 °F 55.4 °F 57% 29.89 in 10.0 mi SE 11.5 mph - N/A   Clear
2:17 PM 71.6 °F 55.4 °F 57% 29.89 in 10.0 mi SSE 18.4 mph 24.2 mph N/A   Scattered Clouds
2:36 PM 73.4 °F 55.4 °F 53% 29.89 in 10.0 mi SE 13.8 mph 23.0 mph N/A   Scattered Clouds
2:56 PM 71.6 °F 55.4 °F 57% 29.89 in 10.0 mi SE 13.8 mph 23.0 mph N/A   Clear
3:16 PM 73.4 °F 55.4 °F 53% 29.88 in 10.0 mi SE 11.5 mph 25.3 mph N/A   Clear
3:37 PM 71.6 °F 55.4 °F 57% 29.89 in 10.0 mi SE 15.0 mph 21.9 mph N/A   Clear
3:56 PM 71.6 °F 55.4 °F 57% 29.88 in 10.0 mi SSE 19.6 mph 24.2 mph N/A   Clear
4:16 PM 71.6 °F 55.4 °F 57% 29.88 in 10.0 mi SSE 12.7 mph 20.7 mph N/A   Clear
4:36 PM 71.6 °F 55.4 °F 57% 29.87 in 10.0 mi SSE 10.4 mph 25.3 mph N/A   Clear
4:57 PM 71.6 °F 55.4 °F 57% 29.87 in 10.0 mi SE 15.0 mph 20.7 mph N/A   Clear
5:16 PM 71.6 °F 55.4 °F 57% 29.87 in 10.0 mi SE 13.8 mph 23.0 mph N/A   Clear
5:36 PM 69.8 °F 55.4 °F 60% 29.87 in 10.0 mi ESE 8.1 mph 19.6 mph N/A   Clear
5:57 PM 69.8 °F 55.4 °F 60% 29.87 in 10.0 mi SE 9.2 mph 24.2 mph N/A   Clear
6:16 PM 68.0 °F 55.4 °F 64% 29.88 in 10.0 mi SE 10.4 mph 17.3 mph N/A   Clear
6:37 PM 66.2 °F 55.4 °F 68% 29.88 in 10.0 mi SE 8.1 mph 16.1 mph N/A   Clear
6:56 PM 64.4 °F 53.6 °F 68% 29.89 in 10.0 mi SE 6.9 mph 19.6 mph N/A   Clear
7:16 PM 64.4 °F 53.6 °F 68% 29.89 in 10.0 mi SE 8.1 mph - N/A   Clear
7:36 PM 64.4 °F 53.6 °F 68% 29.90 in 10.0 mi SE 4.6 mph - N/A   Clear
7:56 PM 62.6 °F 53.6 °F 72% 29.91 in 10.0 mi Calm Calm - N/A   Clear
8:16 PM 62.6 °F 53.6 °F 72% 29.93 in 10.0 mi SE 4.6 mph - N/A   Clear
8:36 PM 60.8 °F 53.6 °F 77% 29.93 in 10.0 mi Calm Calm - N/A   Clear
8:57 PM 60.8 °F 53.6 °F 77% 29.93 in 10.0 mi ESE 4.6 mph - N/A   Clear
9:16 PM 59.0 °F 53.6 °F 82% 29.93 in 10.0 mi ESE 3.5 mph - N/A   Clear
9:36 PM 59.0 °F 51.8 °F 77% 29.93 in 10.0 mi SE 5.8 mph - N/A   Clear
9:57 PM 57.2 °F 51.8 °F 82% 29.93 in 10.0 mi SE 6.9 mph - N/A   Clear
10:16 PM 57.2 °F 51.8 °F 82% 29.93 in 10.0 mi SE 8.1 mph - N/A   Clear
10:36 PM 57.2 °F 51.8 °F 82% 29.92 in 10.0 mi SE 8.1 mph - N/A   Clear
10:57 PM 57.2 °F 51.8 °F 82% 29.92 in 10.0 mi SE 8.1 mph - N/A   Clear
11:16 PM 57.2 °F 51.8 °F 82% 29.92 in 10.0 mi SE 9.2 mph - N/A   Clear
11:36 PM 57.2 °F 51.8 °F 82% 29.92 in 10.0 mi SE 8.1 mph - N/A   Clear
11:57 PM 59.0 °F 51.8 °F 77% 29.92 in 10.0 mi SE 5.8 mph - N/A   Clear